User: anonymous
Location: Pine Mountain Observatory
(43.7910°N, 120.9377°W)
Time: 10:12:17
(UTC-07:00)
Language:

IDEFIX/ARIANE 42P - Orbit

View from above orbital plane
View from above orbital plane
View from above satellite
View from above satellite

Ground track
Ground track

The orbit data is extracted from the following two-line orbital elements,

1 27422U 02021B   14211.15825660  .00000026  00000-0  26429-4 0  5489
2 27422 098.2972 251.5971 0013705 116.0443 312.0726 14.29035439636276
Epoch (UTC): 30 July 2014 03:47:53
Eccentricity: 0.0013705
inclination: 98.2972°
perigee height: 785 km
apogee height: 805 km
right ascension of ascending node: 251.5971°
argument of perigee: 116.0443°
revolutions per day: 14.29035439
mean anomaly at epoch: 312.0726°
orbit number at epoch: 63627

The dashed part of the orbit path shows where the satellite is in the earth's shadow,  

DLR